GW4788 Weather Reports


time (UTC)temp
F
wind
direction
speed
knots
gust
knots
rain 1hr
in
rain 24hr
in
rain mn
in
humidity
%
barometer
mb
20260505164518 72 235 2.6 7.8 0.00 0.00 0.00 59 1007.8
20260505163518 72 195 2.6 5.2 0.00 0.00 0.00 59 1007.6
20260505162518 71 205 1.7 4.3 0.00 0.00 0.00 60 1007.6
20260505161518 71 225 1.7 5.2 0.00 0.00 0.00 59 1007.9
20260505160519 72 211 2.6 7.0 0.00 0.00 0.00 59 1008.1
20260505152519 69 215 2.6 6.1 0.00 0.00 0.00 65 1007.7
20260505151520 68 200 1.7 4.3 0.00 0.00 0.00 66 1007.7
20260505150519 67 192 1.7 5.2 0.00 0.00 0.00 67 1007.6
20260505140519 63 181 1.7 4.3 0.00 0.00 0.00 78 1007.1
20260505124517 60 185 1.7 7.0 0.00 0.00 0.00 82 1007.3
20260505123517 60 202 1.7 5.2 0.00 0.00 0.00 82 1007.2
20260505122538 60 200 1.7 6.1 0.00 0.00 0.00 82 1007.1
20260505121518 60 194 2.6 5.2 0.00 0.00 0.00 82 1006.8
20260505120518 60 181 1.7 3.5 0.00 0.00 0.00 82 1006.5
20260505115518 60 188 1.7 5.2 0.00 0.00 0.00 83 1006.2
20260505114519 60 197 1.7 5.2 0.00 0.00 0.00 81 1006.4
20260505113518 60 182 1.7 5.2 0.00 0.00 0.00 81 1006.4
20260505112538 60 218 1.7 4.3 0.00 0.00 0.00 81 1006.6
20260505111518 60 193 1.7 3.5 0.00 0.00 0.00 80 1006.7
20260505110519 61 211 0.9 2.6 0.00 0.00 0.00 79 1006.9
20260505101516 62 233 1.7 2.6 0.00 0.00 0.00 73 1006.7
20260505100516 62 214 0.9 5.2 0.00 0.00 0.00 72 1006.8
20260505095519 63 179 0.9 3.5 0.00 0.00 0.00 72 1006.7
20260505094519 63 212 0.9 4.3 0.00 0.00 0.00 72 1006.6
20260505093519 63 191 0.9 5.2 0.00 0.00 0.00 72 1006.6
20260505092516 63 214 0.9 2.6 0.00 0.00 0.00 71 1006.4
20260505091520 63 215 0.9 3.5 0.00 0.00 0.00 70 1006.4
20260505090519 63 210 1.7 5.2 0.00 0.00 0.00 69 1006.4
20260505085520 64 210 1.7 4.3 0.00 0.00 0.00 68 1006.3
20260505084520 64 202 1.7 4.3 0.00 0.00 0.00 68 1006.2
20260505083517 64 193 0.9 4.3 0.00 0.00 0.00 67 1006.1
20260505082517 65 197 1.7 6.1 0.00 0.00 0.00 66 1005.8
20260505081520 65 195 2.6 6.1 0.00 0.00 0.00 65 1005.6
20260505080520 65 202 1.7 5.2 0.00 0.00 0.00 66 1005.4
20260505075517 65 244 2.6 7.0 0.00 0.00 0.00 65 1005.2
20260505074517 65 209 1.7 7.0 0.00 0.00 0.00 65 1005.0
20260505073518 65 211 2.6 7.8 0.00 0.00 0.00 65 1005.0
20260505072521 65 187 2.6 7.8 0.00 0.00 0.00 65 1005.1
20260505071521 65 175 1.7 5.2 0.00 0.00 0.00 66 1005.0
20260505070518 65 186 1.7 3.5 0.00 0.00 0.00 66 1005.0
20260505065518 65 184 1.7 6.1 0.00 0.00 0.00 67 1005.0
20260505064518 65 187 1.7 3.5 0.00 0.00 0.00 67 1004.9
20260505063519 65 181 1.7 7.0 0.00 0.00 0.00 67 1004.9
20260505062518 65 191 1.7 4.3 0.00 0.00 0.00 67 1004.9
20260505061516 65 173 1.7 4.3 0.00 0.00 0.00 66 1004.8
20260505060519 66 183 1.7 6.1 0.00 0.00 0.00 66 1004.9
20260505055519 66 188 1.7 5.2 0.00 0.00 0.00 66 1004.9
20260505054520 66 179 1.7 7.0 0.00 0.00 0.00 66 1004.9
20260505053519 66 172 1.7 5.2 0.00 0.00 0.00 65 1005.0
20260505052540 66 185 1.7 6.1 0.00 0.00 0.00 65 1005.2
20260505051520 66 182 2.6 6.1 0.00 0.00 0.00 65 1005.3
20260505050521 67 184 0.9 2.6 0.00 0.00 0.00 65 1005.4
20260505041520 68 188 1.7 5.2 0.00 0.00 0.00 63 1005.3
20260505040518 68 194 1.7 7.0 0.00 0.00 0.00 63 1005.4
20260505035518 68 216 1.7 7.0 0.00 0.00 0.00 63 1005.4
20260505034518 68 196 1.7 3.5 0.00 0.00 0.00 62 1005.3
20260505033518 68 182 0.9 3.5 0.00 0.00 0.00 63 1005.3
20260505032519 68 174 0.9 1.7 0.00 0.00 0.00 64 1005.3
20260505031539 67 188 1.7 5.2 0.00 0.00 0.00 64 1005.2
20260505030519 67 170 1.7 7.0 0.00 0.00 0.00 66 1005.2
20260505025519 67 167 0.9 2.6 0.00 0.00 0.00 67 1005.3
20260505024518 67 180 0.9 4.3 0.00 0.00 0.00 67 1005.2
20260505023539 67 153 0.9 3.5 0.00 0.00 0.00 67 1005.2
20260505022539 67 186 0.9 3.5 0.00 0.00 0.00 66 1005.3
20260505021519 68 170 0.9 4.3 0.00 0.00 0.00 65 1005.3
20260505020519 68 180 1.7 6.1 0.00 0.00 0.00 65 1005.1
20260505015520 68 178 1.7 5.2 0.00 0.00 0.00 65 1005.1
20260505014519 68 157 0.9 3.5 0.00 0.00 0.00 65 1005.0
20260505013520 68 180 0.9 2.6 0.00 0.00 0.00 64 1005.0
20260505012519 68 164 0.9 2.6 0.00 0.00 0.00 64 1004.9
20260505011520 68 162 0.9 2.6 0.00 0.00 0.00 63 1004.7
20260505010517 69 173 0.9 5.2 0.00 0.00 0.00 62 1004.7
20260505005519 69 168 0.9 2.6 0.00 0.00 0.00 61 1004.7
20260505004537 70 191 1.7 5.2 0.00 0.00 0.00 60 1004.7
20260505003557 70 185 0.9 3.5 0.00 0.00 0.00 59 1004.7
20260505002520 70 168 1.7 5.2 0.00 0.00 0.00 58 1004.7
20260505001521 71 167 1.7 4.3 0.00 0.00 0.00 58 1004.7
20260505000518 71 187 0.9 3.5 0.00 0.00 0.00 57 1004.6
20260504235518 72 184 0.9 3.5 0.00 0.00 0.00 56 1004.7
20260504234600 72 193 1.7 5.2 0.00 0.00 0.00 55 1004.9
20260504233558 72 187 1.7 4.3 0.00 0.00 0.00 54 1004.9
20260504232601 72 197 1.7 7.0 0.00 0.00 0.00 54 1004.8
20260504231518 72 193 1.7 6.1 0.00 0.00 0.00 56 1004.9
20260504230518 72 181 1.7 5.2 0.00 0.00 0.00 55 1005.0
20260504225538 72 185 1.7 4.3 0.00 0.00 0.00 55 1005.1
20260504224518 71 184 1.7 5.2 0.00 0.00 0.00 56 1005.4
20260504223519 71 227 1.7 4.3 0.00 0.00 0.00 56 1005.6
20260504222519 71 195 2.6 8.7 0.00 0.00 0.00 56 1005.6
20260504221519 70 197 1.7 5.2 0.00 0.00 0.00 57 1005.7
20260504220519 69 201 1.7 6.1 0.00 0.00 0.00 59 1005.7
20260504215519 69 188 1.7 5.2 0.00 0.00 0.00 60 1005.8
20260504214519 70 195 2.6 7.0 0.00 0.00 0.00 59 1006.0
20260504213536 71 186 2.6 6.1 0.00 0.00 0.00 57 1005.8
20260504212517 73 200 2.6 7.8 0.00 0.00 0.00 54 1005.9
20260504211519 72 210 1.7 5.2 0.00 0.00 0.00 54 1005.9
20260504210519 72 197 2.6 10.4 0.00 0.00 0.00 54 1005.5
20260504205520 71 224 2.6 7.0 0.00 0.00 0.00 56 1005.5
20260504204517 70 199 1.7 5.2 0.00 0.00 0.00 58 1005.8
20260504203520 71 217 1.7 7.0 0.00 0.00 0.00 59 1006.1
20260504202520 71 226 2.6 7.8 0.00 0.00 0.00 59 1006.5
20260504201541 72 192 2.6 7.0 0.00 0.00 0.00 57 1006.6
20260504200517 72 198 2.6 7.8 0.00 0.00 0.00 57 1006.9
20260504195518 73 193 2.6 7.8 0.00 0.00 0.00 56 1007.1
20260504194517 74 201 2.6 7.0 0.00 0.00 0.00 54 1006.8
20260504193523 74 215 2.6 7.0 0.00 0.00 0.00 53 1006.4
20260504192518 75 200 3.5 8.7 0.00 0.00 0.00 53 1006.6
20260504191518 74 221 2.6 7.0 0.00 0.00 0.00 53 1006.4
20260504190518 74 189 2.6 7.0 0.00 0.00 0.00 53 1006.2
20260504185518 74 214 1.7 7.0 0.00 0.00 0.00 53 1006.2
20260504184518 73 191 2.6 8.7 0.00 0.00 0.00 53 1006.3
20260504183518 72 186 2.6 8.7 0.00 0.00 0.00 54 1006.3
20260504182518 72 193 2.6 7.8 0.00 0.00 0.00 55 1006.5
20260504181518 72 199 2.6 6.1 0.00 0.00 0.00 55 1006.6
20260504180519 72 221 1.7 5.2 0.00 0.00 0.00 55 1006.6
20260504175519 71 181 1.7 4.3 0.00 0.00 0.00 55 1006.7
20260504174540 71 193 1.7 6.1 0.00 0.00 0.00 55 1006.9
20260504173519 72 188 2.6 7.8 0.00 0.00 0.00 55 1006.9
20260504172520 71 218 1.7 6.1 0.00 0.00 0.00 56 1006.7
20260504171520 71 205 1.7 7.8 0.00 0.00 0.00 56 1006.8
20260504170539 71 214 2.6 13.0 0.00 0.00 0.00 56 1007.0